Location: George Washington National Forest Helicopter Landing Site
(38.6463°N, 79.0851°W)
Time: 05:44:23
(UTC-04:00)

S-56A Canister/Altair - All Passes

Search period start: 24 August 2019 00:00
Search period end: 03 September 2019 00:00
Orbit: 633 x 2499 km, 38.9° (Epoch: 23 August)

Date Brightness Start Highest point End Pass type
(mag) Time Alt. Az. Time Alt. Az. Time Alt. Az.
24 Aug - 01:34:25 10° W 01:38:52 68° SSW 01:44:23 10° ESE night (unlit)
24 Aug - 03:38:15 10° W 03:42:28 25° SSW 03:47:52 10° SSE visible
24 Aug - 18:53:36 10° SSE 18:55:40 12° SSE 18:57:34 10° SE daylight
24 Aug - 20:53:57 10° SW 20:59:17 40° SSE 21:03:34 10° E visible
24 Aug - 22:58:01 10° W 23:02:46 90° S 23:07:15 10° E visible
25 Aug - 01:01:56 10° W 01:06:21 73° SSW 01:11:30 10° ESE night (unlit)
25 Aug - 03:05:43 10° W 03:09:51 27° SSW 03:15:04 10° SSE night (unlit)
25 Aug - 18:21:48 10° SSE 18:22:59 10° SSE 18:24:07 10° SE daylight
25 Aug - 20:21:06 10° SW 20:26:44 37° SSE 20:31:06 10° E visible
25 Aug - 22:25:15 10° W 22:30:16 86° SSE 22:34:41 10° E visible
26 Aug - 00:29:24 10° W 00:33:50 79° SSW 00:38:42 10° ESE night (unlit)
26 Aug - 02:33:12 10° W 02:37:16 29° SSW 02:42:18 10° SSE night (unlit)
26 Aug - 19:48:12 10° SW 19:54:09 34° SSE 19:58:39 10° E daylight
26 Aug - 21:52:23 10° WSW 21:57:44 81° S 22:02:10 10° E visible
26 Aug - 23:56:48 10° W 00:01:20 84° S 00:05:59 10° ESE visible
27 Aug - 02:00:41 10° W 02:04:43 32° SSW 02:09:35 10° SE night (unlit)
27 Aug - 19:15:15 10° SSW 19:21:31 31° SSE 19:26:11 10° E daylight
27 Aug - 21:19:26 10° WSW 21:25:12 77° SSE 21:29:44 10° E visible
27 Aug - 23:24:08 10° W 23:28:50 88° S 23:33:20 10° E visible
28 Aug - 01:28:08 10° W 01:32:13 36° SSW 01:36:53 10° SE night (unlit)
28 Aug - 18:42:16 10° SSW 18:48:51 29° SSE 18:53:41 10° E daylight
28 Aug - 20:46:25 10° WSW 20:52:38 72° SSE 20:57:18 10° E visible
28 Aug - 22:51:23 10° W 22:56:19 89° N 23:00:45 10° E visible
29 Aug - 00:55:33 10° W 00:59:43 40° SSW 01:04:16 10° SE night (unlit)
29 Aug - 18:09:15 10° SSW 18:16:07 28° SSE 18:21:11 10° E daylight
29 Aug - 20:13:18 10° WSW 20:20:03 67° SSE 20:24:55 10° E visible
29 Aug - 22:18:31 10° W 22:23:48 87° N 22:28:14 10° E visible
30 Aug - 00:22:56 10° W 00:27:15 46° SSW 00:31:41 10° SE visible
30 Aug - 02:28:59 10° SW 02:30:25 11° SSW 02:31:56 10° SSW night (unlit)
30 Aug - 17:36:13 10° SSW 17:43:21 26° SSE 17:48:38 10° E daylight
30 Aug - 19:40:05 10° WSW 19:47:25 63° SSE 19:52:31 10° E daylight
30 Aug - 21:45:33 10° W 21:51:15 86° N 21:55:46 10° E visible
30 Aug - 23:50:14 10° W 23:54:46 53° SSW 23:59:09 10° SE visible
31 Aug - 01:55:45 10° WSW 01:57:52 13° SSW 02:00:06 10° S night (unlit)
31 Aug - 17:03:12 10° SSW 17:10:32 24° SSE 17:16:02 10° E daylight
31 Aug - 19:06:50 10° WSW 19:14:45 59° SSE 19:20:09 10° E daylight
31 Aug - 21:12:29 10° W 21:18:41 87° N 21:23:20 10° E visible
31 Aug - 23:17:29 10° W 23:22:18 60° SSW 23:26:39 10° ESE visible
01 Sep - 01:22:43 10° WSW 01:25:20 15° SSW 01:28:05 10° S night (unlit)
01 Sep - 16:30:12 10° SSW 16:37:40 23° SSE 16:43:21 10° E daylight
01 Sep - 18:33:30 10° SW 18:42:02 55° SSE 18:47:45 10° E daylight
01 Sep - 20:39:17 10° W 20:46:05 89° N 20:50:56 10° E visible
01 Sep - 22:44:38 10° W 22:49:48 68° SSW 22:54:11 10° ESE visible
02 Sep - 00:49:46 10° WSW 00:52:51 18° SSW 00:55:59 10° S night (unlit)
02 Sep - 15:57:15 10° S 16:04:45 21° SE 16:10:35 10° E daylight
02 Sep - 18:00:08 10° SW 18:09:16 52° SSE 18:15:21 10° E daylight
02 Sep - 20:06:01 10° W 20:13:26 89° SSE 20:18:33 10° E visible
02 Sep - 22:11:42 10° W 22:17:17 75° SSW 22:21:45 10° ESE visible
